weather.gov     
National Weather Service

Regional Weather Roundup
NWS Homepage
This page is being discontinued on March 12, 2014.
The same data is available at this site. Please update your bookmarks.
Thank you, and we apologize for the inconvenience.
Please send an email to SR-SRH.Webmaster@noaa.gov with any concerns.


Current Version
Previous Version:    01  02  03  04  05  06  07  08  09  10  11  12  13  14  15  16  17  18  19  20  21  22  23  24  25  26  27  28  29  30  
   31  32  33  34  35  36  37  38  39  40  41  42  43  44  45  46  47  48  49  50  51  52  53  54  55  56  57  58  59  60  
[Printable]
331
ASUS44 KLIX 180310
RWRLIX
NEW ORLEANS REGIONAL WEATHER ROUNDUP
NATIONAL WEATHER SERVICE NEW ORLEANS LA
1000 PM CDT WED SEP 17 2014

NOTE: "FAIR" INDICATES FEW OR NO CLOUDS BELOW 12,000 FEET WITH NO
      SIGNIFICANT WEATHER AND/OR OBSTRUCTIONS TO VISIBILITY.
      SKY/WX - SKY CONDITION AND SIGNIFICANT WEATHER.
      TMP - AIR TEMPERATURE.     DP    - DEWPOINT TEMPERATURE.
      RH  - RELATIVE HUMIDITY.   PRES  - PRESSURE.
      HI  - HEAT INDEX.          WCI   - WIND CHILL INDEX.

*  THESE STATIONS ARE NOT NWS OR FAA STATIONS AND ARE NOT UNDER
   NWS QUALITY CONTROL.

LAZ038-040-048-061>063-065>067-069-180400-
SOUTHEAST LOUISIANA

CITY           SKY/WX    TMP DP  RH WIND       PRES   REMARKS
N.O. AUDUBON     N/A     78  77  95 MISG        N/A
N.O. INTL ARPT MOCLDY    79  72  79 CALM      29.93R
N.O. LAKEFRONT CLEAR     81  71  71 SW5       29.93R
N.O. DOWNTOWN*   N/A     82  68  61 CALM      29.94R
SLIDELL        PTCLDY    76  73  91 CALM      29.93R
BATON ROUGE    PTCLDY    77  74  90 CALM      29.93R
BOOTHVILLE     PTCLDY    80  76  87 CALM      29.93R
BELLE CHASSE   PTCLDY    76  71  85 CALM      29.93R
BOGALUSA*        N/A     78  73  85 CALM      29.95R
GALLIANO*      NOT AVBL
NEW ROADS*       N/A     76  74  93 CALM      29.94R
GONZALES*        N/A     76  76 100 CALM      29.93R
HAMMOND*       CLEAR     75  72  88 CALM      29.95R
HOUMA*         PTCLDY   N/A N/A N/A CALM      29.93S
PORT FOURCHON* CLEAR     82  73  74 CALM      29.96S

$$

MSZ070-080>082-180400-
SOUTHERN MISSISSIPPI

CITY           SKY/WX    TMP DP  RH WIND       PRES   REMARKS
MCCOMB         PTCLDY    76  73  91 CALM      29.95R
GULFPORT       CLEAR     77  73  87 CALM      29.92R
BILOXI         CLEAR     79  74  84 CALM      29.93R
PASCAGOULA     CLEAR     74  72  93 CALM      29.92S

$$

COASTAL OBSERVATIONS
LAKE AND NEARSHORE STATIONS

STATION/POSITION TIME  TEMP    WIND        PRES    WAVE
                       AIR SEA DIR/SP/G            HT/PER
                 (UTC) (F)     (DEG/KT/KT) (MB)    (FT/S)
PASCAGOULA       0300   83     230/  6/  7 1012.8
WAVELAND YACHT   0300   80     270/  3/  4 1012.9
GRAND ISLE       0300   82 88  250/  4/  5 1014.0
SOUTHWEST PASS   0300   82 91  270/ 11/ 13 1014.0
NEW CANAL        0300   81 83  230/  3/  4 1013.9
SHELL BEACH      0300   80 82  220/  4/  5 1013.3

OFFSHORE STATIONS

STATION/POSITION TIME  TEMP    WIND        PRES    WAVE
                       AIR SEA DIR/SP/G            HT/PER
                 (UTC) (F)     (DEG/KT/KT) (MB)    (FT/S)
64 S DAUPHIN ISL 0203   82 85  290/  4/  6 1014.1    1/ 8

$$





U.S. Dept. of Commerce
NOAA National Weather Service
1325 East West Highway
Silver Spring, MD 20910
E-mail: w-nws.webmaster@noaa.gov
Page last modified: May 16, 2007
NATIONAL WEATHER SERVICE: for Safety, for Work, for Fun - FOR LIFE